Weather Roundup
Issued by NWS Corpus Christi, TX

Home | Current Version | Previous Version | Text Only | Print | Product List | Glossary On
Versions: 1 2 3 4 5 6 7 8 9 10 11 12 13 14 15 16 17 18 19 20 21 22 23 24 25 26 27 28 29 30 31 32 33 34 35 36 37 38 39 40 41 42 43 44 45 46 47 48 49 50
000
ASUS44 KCRP 161310
HRRCRP

SOUTH TEXAS REGIONAL WEATHER ROUNDUP
NATIONAL WEATHER SERVICE CORPUS CHRISTI TX
700 AM CST TUE JAN 16 2018


TXZ229>244-161400-
...CORPUS CHRISTI AREA OBSERVATIONS...

CITY           SKY/WX    TMP DP  RH WIND       PRES   REMARKS
CORPUS CHRISTI FLURRIES  37  35  92 N24G31    30.47R WCI  26
NAS CORPUS CHR LGT RAIN  39  38  96 N31G38    30.47R FOG     WCI  27
ROCKPORT       LGT RAIN  35  33  92 N25G33    30.48R FOG     WCI  23
KINGSVILLE ARP CLOUDY    38  37  95 N22G30    30.49R WCI  28
KINGSVILLE NAS CLOUDY    39  34  82 N22G31    30.48R WCI  29
ALICE          CLOUDY    37  32  82 N22G31    30.49R WCI  26
$$

...VICTORIA AREA OBSERVATIONS...

CITY           SKY/WX    TMP DP  RH WIND       PRES   REMARKS
PORT LAVACA    DRIZZLE   32  31  95 N24G31    30.51R WCI  19
VICTORIA       LGT SNOW  32  28  85 N26G35    30.54R FOG     WCI  18
BEEVILLE       CLOUDY    32  29  88 N24G35    30.51R WCI  19
PLEASANTON     DRIZZLE   31  27  83 N13G25    30.59R WCI  22
SAN ANTONIO    FRZ RAIN  29  21  72 N15G30    30.56R WCI  18
$$

...LAREDO AREA OBSERVATIONS...

CITY           SKY/WX    TMP DP  RH WIND       PRES   REMARKS
LAREDO         LGT RAIN  39  37  93 N24G33    30.52R FOG     WCI  28
COTULLA        LGT RAIN  33  30  88 N15G25    30.58R WCI  23
DEL RIO        CLOUDY    34  10  37 N13G18    30.66R WCI  25
MCALLEN        CLOUDY    54  45  71 N25G36    30.38R
HEBBRONVILLE   CLOUDY    37  35  93 NE20G33   30.49R WCI  26
$$

...OTHER TEXAS OBSERVATIONS...

CITY           SKY/WX    TMP DP  RH WIND       PRES   REMARKS
BROWNSVILLE    CLOUDY    64  57  78 E3        30.32R
HOUSTON        LGT SNOW  32  30  92 N23G30    30.56R FOG     WCI  19
COL. STATION   CLOUDY    25  21  85 N21G33    30.65R WCI  11
AUSTIN         FRZ RAIN  27  21  78 N22G32    30.64R WCI  13
WACO           CLOUDY    24   9  52 N23       30.72R WCI   9
FORT WORTH     CLOUDY    23   4  44 N23       30.75R WCI   7
WICHITA FALLS  PTCLDY     8  -2  63 N8        30.82R
LUBBOCK        CLOUDY    17  -3  41 N12       30.65R WCI   4
EL PASO        PTCLDY    28   8  43 E6        30.46R
$$

...MARINE OBSERVATIONS...

STATION/POSITION TIME  SKY/WX   TEMP    WIND        PRES    VSBY  WAVE   SWELL
                                AIR SEA DIR/SP/G                  HT/PER HT/PER
                 (UTC)          (F)     (DEG/KT/KT) (MB)    (MI)  (FT/S) (FT/S)
PORT ARANSAS     NOT AVBL
BUOY 90 E PORT A 1150            62 72  350/ 23/ 29 1026.4          3/ 5
BUOY 200 E PT IS 1150            69 73   60/  8/ 12 1026.0          2/ 6   2/ 6
BUOY 15 E GALVES 1150            47 53  350/ 27/ 31 1029.0          3/ 4
$$




USA.gov is the U.S. government's official web portal to all federal, state and local government web resources and services.